Location: Fort Wayne
(41.1310°N, 85.1290°W)
Time: 03:07:03
(UTC-04:00)

Courier 1B Rocket - All Passes

Search period start: 27 April 2015 00:00
Search period end: 07 May 2015 00:00
Orbit: 920 x 1202 km, 28.2° (Epoch: 25 April)

Date Brightness Start Highest point End Pass type
(mag) Time Alt. Az. Time Alt. Az. Time Alt. Az.
27 Apr - 00:52:44 10° SSW 00:57:09 19° SSE 01:01:50 10° ESE night (unlit)
27 Apr - 02:44:12 10° SW 02:49:45 28° S 02:55:38 10° ESE visible
27 Apr - 04:37:04 10° WSW 04:42:31 24° S 04:48:12 10° SE visible
27 Apr - 06:32:14 10° SW 06:35:15 13° SSW 06:38:05 10° S daylight
27 Apr - 23:53:07 10° S 23:56:28 15° SSE 00:00:04 10° SE night (unlit)
28 Apr - 01:43:43 10° SW 01:48:58 26° S 01:54:31 10° ESE night (unlit)
28 Apr - 03:36:11 10° WSW 03:41:41 26° S 03:47:27 10° SE visible
28 Apr - 05:30:11 10° WSW 05:34:25 16° SSW 05:38:38 10° SSE visible
28 Apr - 22:54:45 10° SSE 22:55:50 11° SSE 22:57:09 10° SE night (unlit)
29 Apr - 00:43:26 10° SW 00:48:14 22° SSE 00:53:18 10° ESE night (unlit)
29 Apr - 02:35:28 10° WSW 02:40:52 27° S 02:46:35 10° SE visible
29 Apr - 04:28:48 10° WSW 04:33:35 20° SSW 04:38:30 10° SSE visible
29 Apr - 23:43:23 10° SSW 23:47:33 19° SSE 23:51:56 10° ESE night (unlit)
30 Apr - 01:34:52 10° SW 01:40:06 26° S 01:45:37 10° ESE night (unlit)
30 Apr - 03:27:43 10° WSW 03:32:47 23° SSW 03:38:03 10° SE visible
30 Apr - 05:23:14 10° SW 05:25:27 11° SSW 05:27:27 10° S visible
30 Apr - 22:43:44 10° S 22:46:55 15° SSE 22:50:16 10° SE visible
01 May - 00:34:23 10° SW 00:39:23 25° S 00:44:35 10° ESE night (unlit)
01 May - 02:26:52 10° WSW 02:32:00 25° S 02:37:23 10° SE night (unlit)
01 May - 04:20:58 10° SW 04:24:39 15° SSW 04:28:19 10° SSE visible
01 May - 21:45:21 10° SSE 21:46:17 10° SSE 21:47:26 10° SE visible
01 May - 23:34:04 10° SW 23:38:41 22° SSE 23:43:28 10° ESE visible
02 May - 01:26:08 10° WSW 01:31:16 26° S 01:36:36 10° SE night (unlit)
02 May - 03:19:32 10° WSW 03:23:53 18° SSW 03:28:19 10° SSE night (unlit)
02 May - 22:33:58 10° SSW 22:38:02 18° SSE 22:42:13 10° ESE visible
03 May - 00:25:31 10° SW 00:30:32 25° S 00:35:45 10° SE visible
03 May - 02:18:27 10° WSW 02:23:09 21° SSW 02:27:59 10° SE night (unlit)
03 May - 04:15:11 10° SSW 04:15:43 10° SSW 04:16:01 10° SSW night (unlit)
03 May - 21:34:12 10° SSW 21:37:23 15° SSE 21:40:42 10° SE visible
03 May - 23:25:01 10° SW 23:29:51 24° S 23:34:49 10° ESE visible
04 May - 01:17:33 10° WSW 01:22:25 23° S 01:27:26 10° SE night (unlit)
04 May - 03:11:53 10° SW 03:14:59 14° SSW 03:18:01 10° S night (unlit)
04 May - 20:35:25 10° S 20:36:45 11° SSE 20:38:16 10° SE daylight
04 May - 22:24:37 10° SW 22:29:11 22° S 22:33:49 10° ESE visible
05 May - 00:16:47 10° SW 00:21:43 25° S 00:26:47 10° SE visible
05 May - 02:10:19 10° SW 02:14:17 17° SSW 02:18:15 10° SSE night (unlit)
05 May - 21:24:24 10° SSW 21:28:31 18° SSE 21:32:42 10° ESE visible
05 May - 23:16:06 10° SW 23:21:02 25° S 23:26:02 10° SE visible
06 May - 01:09:10 10° WSW 01:13:35 20° SSW 01:18:04 10° SSE night (unlit)
06 May - 20:24:28 10° SSW 20:27:52 15° SSE 20:31:20 10° SE daylight
06 May - 22:15:29 10° SW 22:20:21 24° S 22:25:13 10° ESE visible
